Back to catalog

COSMOS 2251 DEB

AliveLEO
NORAD 34570·DEBRIS·🇷🇺 Russia

Launched Jun 16, 1993 from Plesetsk Cosmodrome

Loading…

Next Passes (next 24 hours)

TLE

FreshSource: Space-Track

Epoch: Sep 14, 2026, 13:24 UTC

1 34570U 93036VG  26257.55859558  .00000431  00000-0  26411-3 0  9997
2 34570  73.9560  98.3675 0190732 282.6402 105.7056 14.00324796894613

Track COSMOS 2251 DEB in real time with AllMySat

Download on the App Store